[[{"header":{"parameterUnit":"m.s-1","parameterCategory":1,"la1":30.2991,"la2":30.254,"lo1":-89.0895,"lo2":-89.0444,"dy":0.0017,"dx":0.0017,"nx":28,"ny":28,"refTime":"2026-01-07T09:00:00:Z","depth":0,"parameterNumber":2,"parameterNumberName":"U-component_of_WINDS"},"data":[0,0,0,0,0,0,0,0,0,0,0,0,0,0,0,0,0,0,0,0,0,0,0,0,0,0,0,0,0,0,0,0,0,0,0,0,0,0,0,0,0,0,0,0,0,0,0,0,0,0,0,0,0,0,0,0,0,0,-0.5618,-0.5617,0,-0.5561,-0.556,-0.556,-0.5563,-0.5564,-0.5564,-0.5565,-0.5507,-0.5505,-0.5502,0,0,0,0,0,0,0,0,0,0,0,0,0,-0.5729,-0.5727,-0.5618,-0.5617,-0.5616,-0.5561,-0.556,-0.556,-0.5563,-0.5564,-0.5565,-0.5566,-0.5508,-0.5505,-0.5502,0,0,0,0,0,0,0,0,0,0,0,0,0,-0.5678,-0.5727,-0.5618,-0.5611,-0.561,-0.5561,-0.556,-0.5559,-0.5562,-0.5564,-0.5565,-0.5566,-0.5509,-0.5505,-0.5502,-0.5456,0,0,-0.5491,-0.549,0,0,0,0,0,0,0,0,-0.5681,-0.5674,-0.5613,-0.5612,-0.561,-0.557,-0.5578,-0.5525,-0.5562,-0.558,-0.5565,-0.5567,-0.5527,-0.5522,-0.5509,-0.5453,-0.5451,-0.5491,-0.5489,-0.5487,-0.5486,0,0,0,0,0,0,0,-0.5684,-0.5676,-0.5595,-0.5612,-0.561,-0.5611,-0.5605,-0.5568,-0.5548,-0.5579,-0.5579,-0.5572,-0.5526,-0.5512,-0.5507,-0.545,-0.5491,-0.5488,-0.5486,-0.5484,-0.5354,-0.5353,0,0,0,0,0,0,-0.5689,-0.5679,-0.5597,-0.5594,-0.5649,-0.5608,-0.5602,-0.5582,-0.5548,-0.5544,-0.5571,-0.5573,-0.5517,-0.5511,-0.5505,-0.5449,-0.5487,-0.5484,-0.5482,-0.5356,-0.5354,-0.5353,0,0,0,0,0,0,-0.5692,-0.5682,-0.5599,-0.5636,-0.5626,-0.5605,-0.5583,-0.558,-0.5566,-0.5542,-0.5539,-0.556,-0.5518,-0.551,-0.5468,-0.5447,-0.5482,-0.5479,-0.5357,-0.5355,-0.5353,-0.5337,0,0,0,0,0,0,-0.5695,-0.5683,-0.5665,-0.5636,-0.5624,-0.5563,-0.5582,-0.5578,-0.556,-0.5561,-0.5531,-0.5527,-0.5518,-0.5473,-0.5465,-0.5443,-0.5477,-0.5359,-0.5356,-0.5354,-0.5339,-0.5334,-0.533,0,0,0,0,0,-0.5699,-0.5662,-0.5664,-0.5654,-0.5601,-0.5562,-0.5555,-0.5546,-0.5558,-0.554,-0.5525,-0.5528,-0.5451,-0.5469,-0.5459,-0.5436,-0.536,-0.5357,-0.5354,-0.5341,-0.5335,-0.533,0,0,0,0,0,0,-0.5689,-0.5658,-0.566,-0.5613,-0.559,-0.5562,-0.5539,-0.554,-0.5513,-0.5515,-0.5505,-0.5498,-0.5456,-0.5442,-0.5463,-0.5391,-0.5407,-0.5402,-0.5401,-0.5395,-0.5391,-0.5394,-0.5474,0,0,0,0,0,-0.5682,-0.5652,-0.5627,-0.5588,-0.5577,-0.556,-0.5543,-0.5538,-0.5513,-0.5504,-0.5486,-0.5462,-0.5433,-0.5413,-0.5385,-0.5338,-0.5331,-0.5317,-0.5313,-0.5309,-0.5305,-0.5279,-0.5272,-0.5342,-0.5342,-0.5342,0,0,-0.5666,-0.5645,-0.5627,-0.5586,-0.5567,-0.5537,-0.5552,-0.5519,-0.5496,-0.5499,-0.5458,-0.5444,-0.5417,-0.5372,-0.5352,-0.5359,-0.5284,-0.5305,-0.5303,-0.53,-0.5275,-0.5268,-0.5262,-0.534,-0.5341,-0.5341,0,0,-0.5621,-0.5603,-0.5568,-0.5549,-0.5522,-0.5511,-0.5503,-0.5475,-0.5466,-0.5425,-0.5426,-0.54,-0.5349,-0.533,-0.5314,-0.5263,-0.5264,-0.5254,-0.5231,-0.5205,-0.52,-0.5195,-0.5176,-0.517,-0.525,-0.525,-0.525,0,-0.5604,-0.5558,-0.555,-0.5517,-0.5499,-0.55,-0.5465,-0.5448,-0.5412,-0.5399,-0.5409,-0.5346,-0.5328,-0.5279,-0.5266,-0.5253,-0.5244,-0.5256,-0.5201,-0.5196,-0.5191,-0.5173,-0.5166,-0.5248,-0.5249,-0.5249,-0.5249,0,-0.5539,-0.5507,-0.5483,-0.5448,-0.5428,-0.5394,-0.5381,-0.5361,-0.5358,-0.5347,-0.5305,-0.5284,-0.5252,-0.524,-0.5237,-0.519,-0.5196,-0.5204,-0.522,-0.5184,-0.5167,-0.516,-0.5247,-0.5247,-0.5247,-0.5248,0,0,-0.5485,-0.5447,-0.5438,-0.5422,-0.5392,-0.5368,-0.5335,-0.5303,-0.5286,-0.5262,-0.5233,-0.5191,-0.5198,-0.518,-0.5175,-0.5153,-0.5114,-0.5163,-0.5163,-0.5154,-0.5061,-0.5054,-0.5046,-0.5116,-0.5114,-0.5113,-0.5063,0,-0.5436,-0.5376,-0.5368,-0.5315,-0.5286,-0.5288,-0.5259,-0.5237,-0.5226,-0.52,-0.5188,-0.5158,-0.517,-0.5159,-0.5137,-0.5123,-0.5095,-0.5127,-0.5089,-0.5087,-0.5094,-0.5037,-0.503,-0.4983,-0.5056,-0.5055,-0.5054,0,-0.537,-0.5344,-0.5288,-0.5263,-0.525,-0.5224,-0.5195,-0.517,-0.5146,-0.5139,-0.5119,-0.5117,-0.5083,-0.5103,-0.5056,-0.5078,-0.5062,-0.5053,-0.5051,-0.5046,-0.5067,-0.503,-0.4968,-0.4961,-0.5044,-0.5044,-0.5045,0,-0.5335,-0.5287,-0.5247,-0.5233,-0.5203,-0.5184,-0.5171,-0.5148,-0.513,-0.5104,-0.5092,-0.5064,-0.5047,-0.5025,-0.5016,-0.5031,-0.4969,-0.4988,-0.4963,-0.4963,-0.4948,-0.4949,-0.4882,-0.494,-0.494,-0.4941,-0.4941,0,-0.5281,-0.5246,-0.523,-0.5206,-0.5167,-0.5159,-0.5122,-0.5109,-0.5089,-0.5062,-0.5063,-0.5038,-0.5027,-0.5001,-0.4994,-0.4956,-0.4949,-0.4942,-0.4941,-0.4941,-0.4942,-0.493,-0.4932,-0.4939,-0.4939,-0.494,-0.494,0,-0.5234,-0.5222,-0.5179,-0.5153,-0.5146,-0.5119,-0.5098,-0.5074,-0.5064,-0.503,-0.5022,-0.5006,-0.4974,-0.4964,-0.4926,-0.4921,-0.4877,-0.4878,-0.4884,-0.4884,-0.4859,-0.4861,-0.478,-0.4769,-0.4836,-0.4835,-0.4835,0,-0.5199,-0.5173,-0.5145,-0.5127,-0.5112,-0.5083,-0.5065,-0.5056,-0.5037,-0.5008,-0.4988,-0.4958,-0.4932,-0.4883,-0.4868,-0.4839,-0.4839,-0.4813,-0.4835,-0.4837,-0.4838,-0.4839,-0.4836,-0.4809,-0.4808,-0.4807,-0.4807,0,-0.5138,-0.5134,-0.5107,-0.5078,-0.5055,-0.5032,-0.501,-0.4995,-0.4984,-0.4962,-0.493,-0.4911,-0.4872,-0.4842,-0.4813,-0.4799,-0.4801,-0.4801,-0.4793,-0.4793,-0.4797,-0.4794,-0.4872,-0.4802,-0.4802,-0.4803,-0.4803,-0.4803,-0.5096,-0.5072,-0.5049,-0.5019,-0.5001,-0.498,-0.4957,-0.4944,-0.4917,-0.4885,-0.4882,-0.4848,-0.4826,-0.4787,-0.4772,-0.4746,-0.4753,-0.4742,-0.4739,-0.4736,-0.4734,-0.4803,-0.4741,-0.4741,-0.4741,-0.4741,-0.4741,0,-0.5034,-0.5019,-0.4992,-0.496,-0.4937,-0.4941,-0.4917,-0.4897,-0.4866,-0.4846,-0.4821,-0.4785,-0.4755,-0.4739,-0.471,-0.4691,-0.4692,-0.4684,-0.4684,-0.4681,-0.473,-0.4739,-0.4684,-0.4684,-0.4684,-0.4684,-0.4684,-0.4684,-0.4999,-0.4959,-0.4952,-0.4904,-0.489,-0.4856,-0.4842,-0.4823,-0.4806,-0.4765,-0.4741,-0.473,-0.4711,-0.4681,-0.4654,-0.465,-0.4639,-0.4631,-0.4627,-0.4672,-0.4678,-0.4683,-0.4692,-0.4629,-0.4628,-0.4581,-0.458,-0.458]},{"header":{"parameterUnit":"m.s-1","parameterCategory":1,"la1":30.2991,"la2":30.254,"lo1":-89.0895,"lo2":-89.0444,"dy":0.0017,"dx":0.0017,"nx":28,"ny":28,"refTime":"2026-01-07T09:00:00:Z","depth":0,"parameterNumber":3,"parameterNumberName":"V-component_of_WINDS"},"data":[0,0,0,0,0,0,0,0,0,0,0,0,0,0,0,0,0,0,0,0,0,0,0,0,0,0,0,0,0,0,0,0,0,0,0,0,0,0,0,0,0,0,0,0,0,0,0,0,0,0,0,0,0,0,0,0,0,0,2.9404,2.9406,0,2.9529,2.953,2.9532,2.9545,2.9544,2.9543,2.9541,2.9669,2.9673,2.9678,0,0,0,0,0,0,0,0,0,0,0,0,0,2.9178,2.9182,2.9404,2.9406,2.9407,2.9529,2.953,2.9532,2.9545,2.9544,2.9542,2.9541,2.9667,2.9673,2.9678,0,0,0,0,0,0,0,0,0,0,0,0,0,2.9286,2.9183,2.9404,2.9429,2.9432,2.9528,2.953,2.9532,2.9546,2.9544,2.9542,2.954,2.9666,2.9672,2.9679,2.9759,0,0,2.97,2.9703,0,0,0,0,0,0,0,0,2.928,2.9295,2.9423,2.9427,2.9431,2.9519,2.9497,2.9608,2.9546,2.9503,2.9541,2.9539,2.9621,2.9631,2.9659,2.9765,2.977,2.97,2.9705,2.9708,2.971,0,0,0,0,0,0,0,2.9273,2.9289,2.9453,2.9425,2.943,2.9433,2.9447,2.9518,2.9571,2.9506,2.9507,2.9522,2.9622,2.9652,2.9662,2.9772,2.97,2.9706,2.9711,2.9713,2.9951,2.9953,0,0,0,0,0,0,2.9261,2.9283,2.9449,2.9457,2.9349,2.9439,2.9454,2.9493,2.957,2.958,2.9523,2.9522,2.9641,2.9654,2.9666,2.9766,2.9708,2.9714,2.9718,2.9949,2.9952,2.9954,0,0,0,0,0,0,2.9256,2.9275,2.9444,2.9371,2.9392,2.9445,2.9489,2.9496,2.9526,2.9583,2.9592,2.9544,2.964,2.9657,2.9736,2.977,2.9717,2.9723,2.9946,2.995,2.9953,2.9965,0,0,0,0,0,0,2.9249,2.9273,2.9305,2.9371,2.9396,2.9512,2.9491,2.95,2.9538,2.9537,2.9605,2.9614,2.964,2.9726,2.9743,2.9779,2.9729,2.9944,2.9948,2.9952,2.9962,2.9969,2.9974,0,0,0,0,0,2.9241,2.9303,2.9306,2.9326,2.9436,2.9514,2.9529,2.9557,2.9541,2.9572,2.9609,2.9612,2.9763,2.9734,2.9753,2.9792,2.9942,2.9947,2.9952,2.9959,2.9967,2.9974,0,0,0,0,0,0,2.9239,2.9312,2.9316,2.9402,2.9452,2.9516,2.9557,2.9565,2.962,2.9617,2.965,2.9665,2.9744,2.9775,2.9741,2.9874,2.9851,2.986,2.985,2.9858,2.9864,2.9855,2.9734,0,0,0,0,0,2.9248,2.9306,2.9366,2.9436,2.9461,2.9505,2.954,2.9557,2.961,2.9632,2.9674,2.9725,2.9784,2.9823,2.988,2.9966,2.9981,3.0002,3.0008,3.0013,3.0021,3.0069,3.0079,2.9971,2.997,2.997,0,0,2.9269,2.9316,2.935,2.9437,2.9478,2.9536,2.9522,2.9585,2.9629,2.9641,2.9719,2.9752,2.9811,2.9894,2.9933,2.9923,3.0054,3.0019,3.0023,3.0028,3.0075,3.0086,3.0095,2.9974,2.9973,2.9973,0,0,2.9336,2.9377,2.944,2.9481,2.9543,2.9572,2.9586,2.965,2.9673,2.9751,2.9761,2.9814,2.9915,2.9957,2.9992,3.0075,3.008,3.0092,3.0124,3.0171,3.018,3.0188,3.0218,3.0228,3.01,3.01,3.01,0,2.9354,2.9443,2.9471,2.9534,2.9572,2.9585,2.9649,2.9687,2.9765,2.9791,2.9778,2.9906,2.9947,3.004,3.006,3.0088,3.0106,3.0085,3.0176,3.0184,3.0192,3.0221,3.0233,3.0101,3.0101,3.0101,3.01,0,2.9462,2.9523,2.9566,2.9641,2.9684,2.9747,2.9785,2.9824,2.9838,2.9868,2.9948,2.9997,3.0065,3.0088,3.0102,3.0184,3.0176,3.0169,3.0148,3.0203,3.0231,3.0243,3.0103,3.0102,3.0102,3.0101,0,0,2.9533,2.9622,2.9637,2.9672,2.9741,2.9789,2.9852,2.9919,2.9952,3.0005,3.0059,3.0144,3.0139,3.0178,3.0196,3.0237,3.0301,3.0226,3.0228,3.0239,3.0395,3.04,3.0413,3.0304,3.0306,3.0308,3.039,0,2.9609,2.9723,2.975,2.9847,2.9905,2.9917,2.9973,3.0021,3.005,3.0103,3.0135,3.0196,3.0183,3.0207,3.0248,3.0284,3.0333,3.0278,3.0355,3.0358,3.0342,3.0427,3.0433,3.0509,3.0401,3.0403,3.0405,0,2.9714,2.9769,2.9872,2.9933,2.9959,3.0008,3.0071,3.0121,3.0176,3.0195,3.0238,3.0252,3.0319,3.0292,3.0385,3.0347,3.038,3.0402,3.0406,3.0416,3.0386,3.044,3.0533,3.0545,3.0422,3.0421,3.0419,0,2.9756,2.9856,2.9931,2.996,3.0033,3.0068,3.01,3.0153,3.0191,3.0246,3.0271,3.0333,3.0367,3.0415,3.0445,3.0423,3.0535,3.0511,3.0553,3.0552,3.0577,3.0576,3.0678,3.0596,3.0596,3.0596,3.0595,0,2.984,2.9903,2.9952,2.9998,3.0069,3.0099,3.0168,3.02,3.0247,3.03,3.0314,3.0363,3.0399,3.0453,3.0477,3.0551,3.0565,3.0583,3.0589,3.0582,3.058,3.0605,3.0602,3.0599,3.0598,3.0597,3.0597,0,2.9901,2.9936,3.0018,3.0081,3.0098,3.0147,3.0201,3.0246,3.0275,3.0342,3.0359,3.0405,3.047,3.0504,3.0585,3.0601,3.0683,3.0685,3.0665,3.0668,3.0708,3.0704,3.0832,3.085,3.0754,3.0755,3.0756,0,2.9952,3.0001,3.0069,3.0105,3.0138,3.0196,3.0235,3.0266,3.0306,3.0372,3.0409,3.0474,3.0529,3.0631,3.0671,3.0733,3.0738,3.0778,3.0747,3.0739,3.074,3.0737,3.0743,3.0784,3.0785,3.0786,3.0786,0,3.0041,3.0055,3.0111,3.0174,3.022,3.027,3.032,3.0349,3.0388,3.0432,3.0498,3.054,3.0622,3.0687,3.0752,3.0785,3.0792,3.0795,3.0808,3.0803,3.079,3.0799,3.0681,3.0793,3.0792,3.0791,3.0791,3.0791,3.01,3.0144,3.0198,3.026,3.0301,3.0347,3.0393,3.0427,3.0483,3.0553,3.0567,3.0637,3.069,3.0778,3.0812,3.0868,3.086,3.0878,3.0883,3.0888,3.089,3.078,3.0879,3.0879,3.0879,3.0879,3.0879,0,3.019,3.0225,3.0282,3.0351,3.04,3.0402,3.0457,3.0498,3.0559,3.0608,3.0661,3.0736,3.0799,3.0844,3.0908,3.0943,3.0949,3.0959,3.0958,3.0965,3.0893,3.0876,3.0954,3.0954,3.0954,3.0954,3.0954,3.0954,3.0243,3.0318,3.0339,3.0434,3.0469,3.0538,3.0569,3.0612,3.0651,3.0735,3.0787,3.0816,3.0864,3.0931,3.0989,3.1,3.1024,3.1034,3.1046,3.0978,3.097,3.0963,3.0947,3.1039,3.1039,3.1114,3.1115,3.1116]}]]